Location: Newark
(53.3333°N, 83.7500°E)
Time: 01:40:48
(UTC+00:00)

ISS - Pass Details

Date: 29 October 2019
Orbit: 412 x 421 km, 51.6° (Epoch: 16 November)

Event Time Altitude Azimuth Distance (km) Brightness Sun altitude
Exits shadow 22:32:41 18° 137° (SE) 1,121 -1.3 -25.1°
Drops below altitude 10° 22:34:41 10° 101° (E) 1,509 0.0 -24.8°
Sets 22:37:14 0° 82° (E) 2,375 1.5 -24.5°
